TimeEDT,TemperatureF,Dew PointF,Humidity,Sea Level PressureIn,VisibilityMPH,Wind Direction,Wind SpeedMPH,Gust SpeedMPH,PrecipitationIn,Events,Conditions,WindDirDegrees,DateUTC
12:03 AM,68.0,66.2,94,29.66,2.0,SW,11.5,18.4,0.13,Rain,Heavy Rain,220,2012-09-19 04:03:00
12:20 AM,66.2,66.2,100,29.64,1.0,SW,6.9,-,0.60,Rain,Heavy Rain,220,2012-09-19 04:20:00
12:41 AM,68.0,66.2,94,29.64,2.0,South,11.5,21.9,1.02,Rain,Heavy Rain,180,2012-09-19 04:41:00
12:51 AM,66.2,66.2,100,29.64,4.0,South,4.6,-,1.05,Rain,Rain,180,2012-09-19 04:51:00
12:54 AM,66.9,66.9,100,29.64,6.0,SW,4.6,-,1.06,Rain,Rain,220,2012-09-19 04:54:00
1:02 AM,68.0,66.2,94,29.64,5.0,SSW,6.9,-,0.02,Rain,Rain,200,2012-09-19 05:02:00
1:54 AM,68.0,66.9,96,29.64,5.0,South,8.1,19.6,0.15,Rain,Light Rain,190,2012-09-19 05:54:00
2:14 AM,69.8,66.2,88,29.64,10.0,SSW,6.9,-,0.00,,Overcast,200,2012-09-19 06:14:00
2:54 AM,66.9,64.9,93,29.65,10.0,SSW,3.5,-,0.04,,Overcast,200,2012-09-19 06:54:00
3:54 AM,66.0,64.9,96,29.67,10.0,South,4.6,-,N/A,,Overcast,190,2012-09-19 07:54:00
4:54 AM,66.0,64.0,93,29.68,10.0,SSW,8.1,-,N/A,,Overcast,200,2012-09-19 08:54:00
5:14 AM,66.2,64.4,94,29.70,10.0,WSW,5.8,-,N/A,,Overcast,240,2012-09-19 09:14:00
5:44 AM,62.6,59.0,88,29.73,10.0,WSW,6.9,-,0.00,,Overcast,240,2012-09-19 09:44:00
5:54 AM,62.1,57.9,86,29.73,10.0,WSW,9.2,-,0.00,,Overcast,240,2012-09-19 09:54:00
6:54 AM,62.1,57.0,84,29.76,10.0,West,6.9,-,N/A,,Overcast,270,2012-09-19 10:54:00
7:54 AM,61.0,54.0,78,29.81,10.0,West,5.8,-,N/A,,Overcast,280,2012-09-19 11:54:00
8:54 AM,60.1,46.9,62,29.85,10.0,West,8.1,16.1,N/A,,Overcast,280,2012-09-19 12:54:00
9:54 AM,61.0,48.0,62,29.88,10.0,West,6.9,-,N/A,,Overcast,270,2012-09-19 13:54:00
10:54 AM,62.1,44.1,52,29.91,10.0,WNW,12.7,25.3,N/A,,Clear,300,2012-09-19 14:54:00
11:54 AM,64.0,42.1,45,29.94,10.0,WNW,13.8,20.7,N/A,,Clear,290,2012-09-19 15:54:00
12:54 PM,64.9,41.0,42,29.98,10.0,West,10.4,18.4,N/A,,Clear,270,2012-09-19 16:54:00
1:54 PM,64.9,37.0,36,30.01,10.0,WNW,10.4,20.7,N/A,,Clear,300,2012-09-19 17:54:00
2:54 PM,66.0,37.9,36,30.03,10.0,WNW,8.1,18.4,N/A,,Clear,290,2012-09-19 18:54:00
3:54 PM,64.0,34.0,33,30.05,10.0,WNW,10.4,19.6,N/A,,Clear,290,2012-09-19 19:54:00
4:54 PM,63.0,32.0,31,30.08,10.0,WNW,11.5,18.4,N/A,,Clear,300,2012-09-19 20:54:00
5:54 PM,61.0,32.0,34,30.11,10.0,WNW,6.9,-,N/A,,Clear,300,2012-09-19 21:54:00
6:54 PM,52.0,39.9,63,30.13,10.0,NW,3.5,-,N/A,,Clear,310,2012-09-19 22:54:00
7:54 PM,45.0,39.9,82,30.17,10.0,Calm,Calm,-,N/A,,Clear,0,2012-09-19 23:54:00
8:54 PM,42.1,39.9,92,30.20,10.0,Calm,Calm,-,N/A,,Clear,0,2012-09-20 00:54:00
9:54 PM,41.0,39.9,96,30.22,10.0,Calm,Calm,-,N/A,,Clear,0,2012-09-20 01:54:00
10:02 PM,41.0,39.2,93,30.21,1.0,Calm,Calm,-,N/A,,Mist,0,2012-09-20 02:02:00
10:09 PM,39.2,39.2,100,30.21,0.5,Calm,Calm,-,N/A,Fog,Fog,0,2012-09-20 02:09:00
10:25 PM,39.2,39.2,100,30.22,1.2,Calm,Calm,-,N/A,,Partly Cloudy,0,2012-09-20 02:25:00
10:28 PM,39.2,39.2,100,30.22,4.0,Calm,Calm,-,N/A,,Partly Cloudy,0,2012-09-20 02:28:00
10:54 PM,39.9,39.0,97,30.24,2.5,Calm,Calm,-,N/A,,Partly Cloudy,0,2012-09-20 02:54:00
11:03 PM,39.2,37.4,93,30.23,0.8,Calm,Calm,-,N/A,,Mist,0,2012-09-20 03:03:00
11:12 PM,37.4,37.4,100,30.23,0.2,West,3.5,-,N/A,Fog,Fog,260,2012-09-20 03:12:00
11:19 PM,37.4,37.4,100,30.23,1.0,Calm,Calm,-,N/A,,Mist,0,2012-09-20 03:19:00
11:21 PM,37.4,37.4,100,30.23,1.5,Calm,Calm,-,N/A,,Scattered Clouds,0,2012-09-20 03:21:00
11:24 PM,37.4,37.4,100,30.23,3.0,West,3.5,-,N/A,,Scattered Clouds,260,2012-09-20 03:24:00
11:26 PM,37.4,37.4,100,30.23,1.8,Calm,Calm,-,N/A,,Scattered Clouds,0,2012-09-20 03:26:00
11:28 PM,37.4,37.4,100,30.24,0.8,Calm,Calm,-,N/A,,Mist,0,2012-09-20 03:28:00
11:37 PM,37.4,37.4,100,30.24,1.5,Calm,Calm,-,N/A,,Partly Cloudy,0,2012-09-20 03:37:00
11:42 PM,37.4,37.4,100,30.23,1.0,Calm,Calm,-,N/A,,Mist,0,2012-09-20 03:42:00
11:50 PM,37.4,37.4,100,30.24,2.0,Calm,Calm,-,N/A,,Partly Cloudy,0,2012-09-20 03:50:00
11:51 PM,37.4,37.4,100,30.24,3.0,Calm,Calm,-,N/A,,Partly Cloudy,0,2012-09-20 03:51:00
11:54 PM,37.9,37.0,97,30.25,8.0,Calm,Calm,-,N/A,,Partly Cloudy,0,2012-09-20 03:54:00